Regional Weather Roundup
Issued by NWS

Home | Current Version | Previous Version | Graphics & Text | Print | Product List | Glossary On
Versions: 1 2 3 4 5 6 7 8 9 10 11 12 13 14 15 16 17 18 19 20 21 22 23 24 25 26 27
000
ASUS45 KPSR 050410
RWRAZ

ARIZONA HOURLY REGIONAL WEATHER ROUNDUP
NATIONAL WEATHER SERVICE PHOENIX AZ
900 PM MST WED MAY 04 2016

NOTE: FAIR INDICATES FEW OR NO CLOUDS BELOW 12,000 FEET WITH NO
SIGNIFICANT WEATHER AND/OR OBSTRUCTIONS TO VISIBILITY.

AZZ001>003-036-050500-
NORTHWEST ARIZONA

CITY           SKY/WX    TMP DP  RH WIND       PRES   REMARKS
BULLHEAD CITY  MOCLDY    90  27  10 S13       29.73R
KINGMAN        CLOUDY    75  22  13 S14       29.89R
$$

AZZ004>008-015-016-018-050500-
NORTH CENTRAL ARIZONA

CITY           SKY/WX    TMP DP  RH WIND       PRES   REMARKS
GRAND CANYON   PTCLDY    52  30  43 CALM      30.14R
WILLIAMS       CLEAR     57  21  24 S5        30.21S
PRESCOTT       CLEAR     64  25  22 SW8       30.03R
FLAGSTAFF      CLEAR     48  26  42 CALM      30.18R
PAYSON         CLEAR     72  23  16 VRB5      30.07R
PAGE           PTCLDY    74  27  17 SE8       29.95R
$$

AZZ009>014-017-050500-
NORTHEAST ARIZONA

CITY           SKY/WX    TMP DP  RH WIND       PRES   REMARKS
WINSLOW        CLEAR     66  31  27 S8        30.04R
SAINT JOHNS    PTCLDY    65  27  23 MISG      30.11R
WINDOW ROCK    CLEAR     56  32  40 CALM      30.20R
SHOW LOW       CLEAR     63  19  19 S10       30.17R
$$

AZZ023-050500-
GREATER PHOENIX AREA

CITY           SKY/WX    TMP DP  RH WIND       PRES   REMARKS
PHOENIX        CLEAR     90  22   8 W18G24    29.75R
BUCKEYE        CLEAR     84  27  12 W9        29.80R
LUKE AFB       CLEAR     86  26  11 SW15      29.75R
DEER VALLEY    CLEAR     88  23   9 W12       29.79R
SCOTTSDALE     CLEAR     89  20   8 W8        29.80R
MESA-GATEWAY   CLEAR     90  28  11 W10       29.78R
CHANDLER       PTCLDY    88  27  11 W9        29.78R
$$

AZZ027-028-050500-
SOUTHWEST MARICOPA COUNTY AND PINAL COUNTY

CITY           SKY/WX    TMP DP  RH WIND       PRES   REMARKS
CASA GRANDE    CLEAR     84  28  13 W12       29.81R
GILA BEND      CLEAR     85  17   8 SW12      29.77
$$

AZZ503-504-507>509-050500-
SOUTHEAST ARIZONA

CITY           SKY/WX    TMP DP  RH WIND       PRES   REMARKS
TUCSON         PTCLDY    84  30  14 W9        29.92R
DAVIS-MONTHAN  CLEAR     84  33  15 NW9       29.91R
NOGALES        CLEAR     74  27  17 SE5       30.01R
SIERRA VISTA   CLEAR     77  23  13 SW20G29   30.04R
DOUGLAS        PTCLDY    79  28  15 E16       30.01R
SAFFORD        CLEAR     81  25  12 SE15      29.94R
$$

AZZ020-021-025-026-031-050500-
SOUTHWEST ARIZONA

CITY           SKY/WX    TMP DP  RH WIND       PRES   REMARKS
YUMA           MOCLDY    82  34  17 SE7       29.74R
$$

CAZ031-033-041-043-047-048-061-050500-
SOUTHERN CALIFORNIA

CITY           SKY/WX    TMP DP  RH WIND       PRES   REMARKS
DOWNTOWN L.A.  PTCLDY    60  52  74 W5        29.93R
L.A. AIRPORT   MOCLDY    60  51  72 SW7       29.93R
SAN DIEGO      MOCLDY    62  51  67 W6        29.96R
BURBANK        PTCLDY    57  50  77 S8        29.92R
ONTARIO        PTCLDY    61  51  70 W8        29.92R
RIVERSIDE      CLEAR     62  51  67 NW3       29.92R
PALM SPRINGS   PTCLDY    78  47  33 NW22G29   29.74R
EL CENTRO NAS  CLOUDY    80  47  31 W14       29.73R
IMPERIAL       CLOUDY    79  49  34 W8        29.72R
BLYTHE         MOCLDY    88  35  15 SW16      29.73R
NEEDLES        CLOUDY    89  28  11 SW6       29.72R
$$

NVZ020-UTZ003-050500-
SOUTHERN NEVADA-UTAH

CITY           SKY/WX    TMP DP  RH WIND       PRES   REMARKS
LAS VEGAS      MOCLDY    85  26  11 S5        29.75R
SALT LAKE CITY CLOUDY    72  34  24 SE6       29.94R
$$

NMZ009-TXZ055-050500-
NEW MEXICO-WEST TEXAS

CITY           SKY/WX    TMP DP  RH WIND       PRES   REMARKS
ALBUQUERQUE    CLEAR     64  23  21 E5        30.17R
EL PASO        CLEAR     73  18  12 E8        30.09R
$$


........................KEY........................
SKY/WX - SKY CONDITION/WEATHER
TMP    - TEMPERATURE IN FAHRENHEIT
DP     - DEW POINT IN FAHRENHEIT
RH     - RELATIVE HUMIDITY IN PERCENT
WIND   - DIRECTION AND SPEED IN MILES PER HOUR (MPH)
VRB    - VARIABLE WIND DIRECTION
PRES   - MEAN SEA LEVEL PRESSURE IN INCHES OF MERCURY
         F - FALLING PRESSURE   R - RISING PRESSURE
         S - STEADY PRESSURE
VSB    - VISIBILITY IN MILES
HX     - HEAT INDEX IN FAHRENHEIT
WCI    - WIND CHILL INDEX IN FAHRENHEIT
TC     - TEMPERATURE IN CELSIUS WHICH IS ALSO KNOWN AS
         TEMPERATURE IN CENTIGRADE
AFB    - AIR FORCE BASE
         LUKE AFB IS LUKE AIR FORCE BASE
         DAVIS-MONTHAN IS DAVIS-MONTHAN AIR FORCE BASE
NAS    - NAVAL AIR STATION
         EL CENTRO NAS IS EL CENTRO NAVAL AIR STATION
N/A    - NOT AVAILABLE





USA.gov is the U.S. government's official web portal to all federal, state and local government web resources and services.